sat.trackr.live / text

‹ back to catalog

STARLINK-32103

NORAD 59688 · 2024-086G

PAYLOAD ACTIVE UNKNOWN

§ Identity

Operator
Country
US
Launch date
2024-05-08
Launch site
AFETR
Launch vehicle
Mass (kg)
RCS (m²)

Purposes: comms

External: N2YO · Heavens-Above · Gunter

§ Orbital elements

Epoch: 2026-09-21T18:42:33.698016Z

Period
94.27 min
Inclination
43.0032°
Eccentricity
0.0000866
Mean motion
15.27578896 rev/d
Perigee alt
482.5 km
Apogee alt
483.6 km
Semi-major
6,861.2 km
B*
3.9713e-5
RAAN
21.9259°
Arg perigee
291.6228°
Mean anomaly
68.4531°
Rev number
13,422

§ Raw data

STARLINK-321031 59688U 24086G   26264.77955669  .00000831  00000+0  39713-4 0  99982 59688  43.0032  21.9259 0000866 291.6228  68.4531 15.27578896134225

JSON: /api/v1/satellites/59688 · /tle

For live sub-satellite position, see the globe view (requires WebGL).

§ Visibility from observer

Set your observer location to see the next 7 days of passes ≥ 10°. The values pass through the URL so the page stays shareable.

No JS? Fill the form by hand. The geolocation button needs JavaScript.